This is the latest recevied weather packets stored in our database for station/object BARLOW-WX. If no packets are shown the sender has not sent any weather packets the latest 10 day(s).
| Time | Temp. | Humidity | Pressure | Rain* | Wind** | Luminosity | Snow |
|---|---|---|---|---|---|---|---|
| 1777462294 | 8.89° C | 92% | 985.4 hPa | 0 mm | - | - | - |
| 1777461377 | 8.89° C | 92% | 985.4 hPa | 0 mm | - | - | - |
| 1777460502 | 8.89° C | 92% | 985.4 hPa | 0 mm | - | - | - |
| 1777459577 | 8.89° C | 89% | 984.7 hPa | 0 mm | - | - | - |
| 1777458696 | 8.89° C | 92% | 984.9 hPa | 0 mm | - | - | - |
| 1777457777 | 8.89° C | 92% | 984.9 hPa | 0 mm | - | - | - |
| 1777456909 | 8.89° C | 92% | 984.9 hPa | 0 mm | - | - | - |
| 1777455977 | 8.89° C | 91% | 985.2 hPa | 0 mm | - | - | - |
| 1777455095 | 8.89° C | 91% | 985.2 hPa | 0 mm | - | - | - |
| 1777454177 | 8.89° C | 91% | 985.2 hPa | 0 mm | - | - | - |
| 1777453306 | 8.89° C | 91% | 985.2 hPa | 0 mm | - | - | - |
| 1777452378 | 8.89° C | 91% | 984.3 hPa | 0 mm | - | - | - |
| 1777451496 | 8.89° C | 89% | 983.8 hPa | 0 mm | - | - | - |
| 1777450577 | 8.89° C | 89% | 983.8 hPa | 0 mm | - | - | - |
| 1777449707 | 8.89° C | 89% | 983.8 hPa | 0 mm | - | - | - |
| 1777448777 | 9.44° C | 88% | 984.5 hPa | 0 mm | - | - | - |
| 1777447894 | 9.44° C | 88% | 984.5 hPa | 0 mm | - | - | - |
| 1777446976 | 8.89° C | 88% | 984.5 hPa | 0 mm | - | - | - |
| 1777446108 | 8.89° C | 88% | 984.5 hPa | 0 mm | - | - | - |
| 1777445176 | 8.89° C | 86% | 985.9 hPa | 0 mm | - | - | - |
| 1777444295 | 8.89° C | 86% | 985.2 hPa | 0 mm | - | - | - |
| 1777443376 | 9.44° C | 86% | 985.2 hPa | 0 mm | - | - | - |
| 1777442525 | 9.44° C | 86% | 985.2 hPa | 0 mm | - | - | - |
| 1777441577 | 9.44° C | 87% | 986.3 hPa | 0 mm | - | - | - |
| 1777440697 | 9.44° C | 87% | 985.3 hPa | 0 mm | - | - | - |
* Rain latest hour (hover to see other rain measurements)
** Current wind speed in m/s (hover to see current wind gust speed)